User: anonymous   Login
Location: Fort Wayne
(41.1310°N, 85.1290°W)
Time: 15:59:09
(UTC-05:00)
Language:

Cosmos 1000 Rocket - Orbit

View from above orbital plane
View from above orbital plane
View from above satellite
View from above satellite

Ground track
Ground track

The orbit data is extracted from the following two-line orbital elements,

1 10777U 78034B   17049.82490522 +.00000019 +00000-0 +37473-5 0  9996
2 10777 082.9451 318.6138 0026242 166.6857 255.6156 13.77388374954096
Epoch (UTC): 18 February 2017 19:47:51
Eccentricity: 0.0026242
inclination: 82.9451°
perigee height: 954 km
apogee height: 992 km
right ascension of ascending node: 318.6138°
argument of perigee: 166.6857°
revolutions per day: 13.77388374
mean anomaly at epoch: 255.6156°
orbit number at epoch: 95409

The dashed part of the orbit path shows where the satellite is in the earth's shadow,  

DLR